Regional Weather Roundup
Issued by NWS Albany, NY

Home | Current Version | Previous Version | Text Only | Print | Product List | Glossary On
Versions: 1 2 3 4 5 6 7 8 9 10 11 12 13 14 15 16 17 18 19 20 21 22 23 24 25 26 27 28 29 30 31 32 33 34 35 36 37 38 39 40 41 42 43 44 45 46 47 48 49 50
000
ASUS41 KALY 010610
RWRALY

NEW YORK STATE HOURLY WEATHER ROUNDUP
NATIONAL WEATHER SERVICE ALBANY NY
200 AM EDT WED OCT 01 2014

NOTE: "FAIR" INDICATES FEW OR NO CLOUDS BELOW 12,000 FEET WITH NO
SIGNIFICANT WEATHER AND/OR NO OBSTRUCTIONS TO VISIBILITY.

NYZ032-033-038>043-046>054-057>066-NYZ062>081-010700-
EAST


CITY           SKY/WX    TMP DP  RH WIND       PRES   REMARKS
ALBANY         CLOUDY    61  56  83 CALM      30.03S
GLENS FALLS    CLOUDY    61  56  83 CALM      30.04R
POUGHKEEPSIE   MOCLDY    59  55  87 NE3       30.01R
NEWBURGH       PTCLDY    59  55  88 E8        30.02S
MONTGOMERY     MOCLDY    56  54  93 N5        30.02R
WHITE PLAINS   CLOUDY    60  56  86 NE5       29.99S
ISLIP          CLOUDY    61  57  87 NE8       29.97S
NEW YORK CITY  CLOUDY    63  59  88 NE13      29.99R
CENTRAL PARK   CLOUDY    63  57  81 VRB3      30.02R
$$

NYZ005>009-017-018-044>046-055-056-010700-
CENTRAL


CITY           SKY/WX    TMP DP  RH WIND       PRES   REMARKS
FULTON         PTCLDY    56  54  93 CALM      29.99R FOG
SYRACUSE       MOCLDY    59  57  93 E6        29.98R
ROME           CLEAR     59  56  89 E9        30.02R
ELMIRA         CLOUDY    60  59  96 NE5       29.99R FOG
BINGHAMTON     CLOUDY    59  57  93 S6        30.00S
MONTICELLO     CLOUDY    57  55  94 E7        30.04R
$$

NYZ026>034-041>043-010700-
NORTH


CITY           SKY/WX    TMP DP  RH WIND       PRES   REMARKS
WATERTOWN      CLEAR     55  50  83 NE7       30.01R HAZE
FORT DRUM      NOT AVBL
MASSENA        CLOUDY    54  52  93 E9        30.08R
SARANAC LAKE   PTCLDY    50  49  96 N3        30.05R FOG
PLATTSBURGH    CLOUDY    54  50  86 N9        30.07R
$$

NYZ001>004-010>016-019>021-010700-
WEST


CITY           SKY/WX    TMP DP  RH WIND       PRES   REMARKS
NIAGARA FALLS  CLOUDY    58  56  93 NE12      30.00R FOG
BUFFALO        CLOUDY    60  57  89 NE10      29.99S
DUNKIRK        CLOUDY    59  57  93 CALM      29.98R
JAMESTOWN      CLOUDY    55  55 100 CALM      30.00R VSB 1/4
WELLSVILLE     CLOUDY    56  54  93 SE5       30.02R
ROCHESTER      CLOUDY    61  58  90 N5        30.00S
PENN YAN       MOCLDY    59  50  72 CALM      30.00R FOG
$$

             KEY
       WCI = WIND CHILL INDEX
       VSB = VISIBILITY
       HX  = HEAT INDEX
$$


USA.gov is the U.S. government's official web portal to all federal, state and local government web resources and services.